Time,TemperatureF,DewpointF,PressureIn,WindDirection,WindDirectionDegrees,WindSpeedMPH,WindSpeedGustMPH,Humidity,HourlyPrecipIn,Conditions,Clouds,dailyrainin,SolarRadiationWatts/m^2,SoftwareType,DateUTC
2013-08-01 00:02:00,80.4,77.9,29.97,ESE,115,4.6,4.6,92,0.00,CLR,SKC,0.00,0.0,WeatherDisplay:10.37,2013-08-01 05:02:00,
2013-08-01 00:07:00,80.4,77.9,29.97,SE,142,3.5,3.5,92,0.00,CLR,SKC,0.00,0.0,WeatherDisplay:10.37,2013-08-01 05:07:00,
2013-08-01 00:12:00,80.4,77.9,29.97,SE,127,3.5,3.5,92,0.00,CLR,SKC,0.00,0.0,WeatherDisplay:10.37,2013-08-01 05:12:00,
2013-08-01 00:17:00,80.4,77.9,29.97,SE,124,3.5,3.5,92,0.00,CLR,SKC,0.00,0.0,WeatherDisplay:10.37,2013-08-01 05:17:00,
2013-08-01 00:22:00,80.4,77.9,29.97,SE,128,3.5,3.5,92,0.00,CLR,SKC,0.00,0.0,WeatherDisplay:10.37,2013-08-01 05:22:00,
2013-08-01 00:28:00,80.4,77.9,29.98,SE,130,3.5,3.5,92,0.00,CLR,SKC,0.00,0.0,WeatherDisplay:10.37,2013-08-01 05:28:00,
2013-08-01 00:33:00,80.4,77.9,29.98,South,173,3.5,3.5,92,0.00,CLR,SKC,0.00,0.0,WeatherDisplay:10.37,2013-08-01 05:33:00,
2013-08-01 00:38:00,80.4,77.9,29.98,SSE,155,3.5,3.5,92,0.00,CLR,SKC,0.00,0.0,WeatherDisplay:10.37,2013-08-01 05:38:00,
2013-08-01 00:43:00,80.3,77.8,29.98,SSE,150,6.0,6.0,92,0.00,CLR,SKC,0.00,0.0,WeatherDisplay:10.37,2013-08-01 05:43:00,
2013-08-01 00:48:00,80.3,77.8,29.98,SE,143,3.5,3.5,92,0.00,CLR,SKC,0.00,0.0,WeatherDisplay:10.37,2013-08-01 05:48:00,
2013-08-01 00:53:00,80.3,77.8,29.98,SSE,157,3.5,3.5,92,0.00,CLR,SKC,0.00,0.0,WeatherDisplay:10.37,2013-08-01 05:53:00,
2013-08-01 00:58:00,80.3,77.8,29.97,SSE,154,4.6,4.6,92,0.00,CLR,SKC,0.00,0.0,WeatherDisplay:10.37,2013-08-01 05:58:00,
2013-08-01 01:03:00,80.3,78.1,29.97,SE,128,4.6,4.6,93,0.00,CLR,SKC,0.00,0.0,WeatherDisplay:10.37,2013-08-01 06:03:00,
2013-08-01 01:08:00,80.3,78.1,29.97,ESE,117,3.5,3.5,93,0.00,CLR,SKC,0.00,0.0,WeatherDisplay:10.37,2013-08-01 06:08:00,
2013-08-01 01:13:00,80.2,78.0,29.97,SSE,151,3.5,3.5,93,0.00,CLR,SKC,0.00,0.0,WeatherDisplay:10.37,2013-08-01 06:13:00,
2013-08-01 01:18:00,80.2,78.0,29.97,SE,143,3.5,3.5,93,0.00,CLR,SKC,0.00,0.0,WeatherDisplay:10.37,2013-08-01 06:18:00,
2013-08-01 01:23:00,80.2,78.0,29.97,SSE,166,3.5,3.5,93,0.00,CLR,SKC,0.00,0.0,WeatherDisplay:10.37,2013-08-01 06:23:00,
2013-08-01 01:28:00,80.2,78.0,29.97,SE,128,3.5,3.5,93,0.00,CLR,SKC,0.00,0.0,WeatherDisplay:10.37,2013-08-01 06:28:00,
2013-08-01 01:33:00,80.1,77.9,29.97,ESE,114,3.5,3.5,93,0.00,CLR,SKC,0.00,0.0,WeatherDisplay:10.37,2013-08-01 06:33:00,
2013-08-01 01:38:00,80.1,77.9,29.97,SSE,157,3.5,3.5,93,0.00,CLR,SKC,0.00,0.0,WeatherDisplay:10.37,2013-08-01 06:38:00,
2013-08-01 01:43:00,80.1,77.9,29.97,SSE,156,5.8,5.8,93,0.00,CLR,SKC,0.00,0.0,WeatherDisplay:10.37,2013-08-01 06:43:00,
2013-08-01 01:48:00,80.1,77.9,29.97,SSE,159,5.8,5.8,93,0.00,CLR,SKC,0.00,0.0,WeatherDisplay:10.37,2013-08-01 06:48:00,
2013-08-01 01:53:00,80.1,77.9,29.97,SE,141,3.5,3.5,93,0.00,CLR,SKC,0.00,0.0,WeatherDisplay:10.37,2013-08-01 06:53:00,
2013-08-01 01:58:00,80.1,77.9,29.97,SE,124,3.5,3.5,93,0.00,CLR,SKC,0.00,0.0,WeatherDisplay:10.37,2013-08-01 06:58:00,
2013-08-01 02:03:00,80.0,77.8,29.97,SE,125,3.5,3.5,93,0.00,CLR,SKC,0.00,0.0,WeatherDisplay:10.37,2013-08-01 07:03:00,
2013-08-01 02:08:00,80.0,77.8,29.97,SSE,156,3.5,3.5,93,0.00,CLR,SKC,0.00,0.0,WeatherDisplay:10.37,2013-08-01 07:08:00,
2013-08-01 02:13:00,80.0,77.8,29.97,South,176,2.3,2.3,93,0.00,CLR,SKC,0.00,0.0,WeatherDisplay:10.37,2013-08-01 07:13:00,
2013-08-01 02:18:00,80.0,77.8,29.97,SSE,150,0.0,0.0,93,0.00,CLR,SKC,0.00,0.0,WeatherDisplay:10.37,2013-08-01 07:18:00,
2013-08-01 02:23:00,80.0,77.8,29.97,SSE,162,3.5,0.0,93,0.00,CLR,SKC,0.00,0.0,WeatherDisplay:10.37,2013-08-01 07:23:00,
2013-08-01 02:28:00,80.0,77.8,29.97,SSE,154,1.1,1.1,93,0.00,CLR,SKC,0.00,0.0,WeatherDisplay:10.37,2013-08-01 07:28:00,
2013-08-01 02:33:00,80.0,77.8,29.97,SE,141,4.6,4.6,93,0.00,CLR,SKC,0.00,0.0,WeatherDisplay:10.37,2013-08-01 07:33:00,
2013-08-01 02:38:00,80.0,77.8,29.97,SSW,198,2.3,2.3,93,0.00,CLR,SKC,0.00,0.0,WeatherDisplay:10.37,2013-08-01 07:38:00,
2013-08-01 02:43:00,79.9,77.7,29.97,SSE,153,4.6,4.6,93,0.00,CLR,SKC,0.00,0.0,WeatherDisplay:10.37,2013-08-01 07:43:00,
2013-08-01 02:48:00,79.9,77.7,29.97,SSW,204,1.1,0.0,93,0.00,CLR,SKC,0.00,0.0,WeatherDisplay:10.37,2013-08-01 07:48:00,
2013-08-01 02:53:00,79.9,77.7,29.97,SSW,203,2.3,2.3,93,0.00,CLR,SKC,0.00,0.0,WeatherDisplay:10.37,2013-08-01 07:53:00,
2013-08-01 02:58:00,80.0,77.8,29.96,SE,145,3.5,3.5,93,0.00,CLR,SKC,0.00,0.0,WeatherDisplay:10.37,2013-08-01 07:58:00,
2013-08-01 03:03:00,79.9,77.7,29.96,SSW,210,3.5,3.5,93,0.00,CLR,SKC,0.00,0.0,WeatherDisplay:10.37,2013-08-01 08:03:00,
2013-08-01 03:08:00,79.8,77.6,29.96,SSW,195,2.3,2.3,93,0.00,CLR,SKC,0.00,0.0,WeatherDisplay:10.37,2013-08-01 08:08:00,
2013-08-01 03:14:00,79.8,77.6,29.96,South,189,1.1,1.1,93,0.00,CLR,SKC,0.00,0.0,WeatherDisplay:10.37,2013-08-01 08:14:00,
2013-08-01 03:19:00,79.8,77.6,29.96,SSE,162,3.5,3.5,93,0.00,CLR,SKC,0.00,0.0,WeatherDisplay:10.37,2013-08-01 08:19:00,
2013-08-01 03:24:00,79.8,77.6,29.96,SW,216,2.3,2.3,93,0.00,CLR,SKC,0.00,0.0,WeatherDisplay:10.37,2013-08-01 08:24:00,
2013-08-01 03:29:00,79.7,77.5,29.96,WSW,239,3.5,3.5,93,0.00,CLR,SKC,0.00,0.0,WeatherDisplay:10.37,2013-08-01 08:29:00,
2013-08-01 03:34:00,79.7,77.5,29.96,South,180,2.3,2.3,93,0.00,CLR,SKC,0.00,0.0,WeatherDisplay:10.37,2013-08-01 08:34:00,
2013-08-01 03:39:00,79.8,77.6,29.96,South,184,1.1,1.1,93,0.00,CLR,SKC,0.00,0.0,WeatherDisplay:10.37,2013-08-01 08:39:00,
2013-08-01 03:44:00,79.8,77.6,29.96,SSE,156,2.0,2.0,93,0.00,CLR,SKC,0.00,0.0,WeatherDisplay:10.37,2013-08-01 08:44:00,
2013-08-01 03:50:00,79.7,77.5,29.96,SSE,153,1.1,1.1,93,0.00,CLR,SKC,0.00,0.0,WeatherDisplay:10.37,2013-08-01 08:50:00,
2013-08-01 03:55:00,79.8,77.6,29.96,SW,216,2.3,2.3,93,0.00,CLR,SKC,0.00,0.0,WeatherDisplay:10.37,2013-08-01 08:55:00,
2013-08-01 04:01:00,79.8,77.6,29.96,South,187,1.0,4.0,93,0.00,CLR,SKC,0.00,0.0,WeatherDisplay:10.37,2013-08-01 09:01:00,
2013-08-01 04:06:00,79.8,77.6,29.96,SSW,196,3.5,3.5,93,0.00,CLR,SKC,0.00,0.0,WeatherDisplay:10.37,2013-08-01 09:06:00,
2013-08-01 04:12:00,79.8,77.9,29.96,SE,145,1.1,1.1,94,0.00,CLR,SKC,0.00,0.0,WeatherDisplay:10.37,2013-08-01 09:12:00,
2013-08-01 04:18:00,79.8,77.9,29.96,SSW,196,2.0,2.0,94,0.00,CLR,SKC,0.00,0.0,WeatherDisplay:10.37,2013-08-01 09:18:00,
2013-08-01 04:24:00,79.8,77.9,29.96,ESE,121,1.1,1.1,94,0.00,CLR,SKC,0.00,0.0,WeatherDisplay:10.37,2013-08-01 09:24:00,
2013-08-01 04:29:00,79.8,77.9,29.95,South,169,3.5,3.5,94,0.00,CLR,SKC,0.00,0.0,WeatherDisplay:10.37,2013-08-01 09:29:00,
2013-08-01 04:34:00,79.6,77.7,29.95,East,82,3.5,3.5,94,0.00,CLR,SKC,0.00,0.0,WeatherDisplay:10.37,2013-08-01 09:34:00,
2013-08-01 04:40:00,79.5,77.6,29.96,SE,132,3.5,3.5,94,0.00,CLR,SKC,0.00,0.0,WeatherDisplay:10.37,2013-08-01 09:40:00,
2013-08-01 04:46:00,79.5,77.6,29.96,SW,214,2.3,2.3,94,0.00,CLR,SKC,0.00,0.0,WeatherDisplay:10.37,2013-08-01 09:46:00,
2013-08-01 04:51:00,79.4,77.5,29.96,SSW,212,3.5,3.5,94,0.00,CLR,SKC,0.00,0.0,WeatherDisplay:10.37,2013-08-01 09:51:00,
2013-08-01 04:57:00,79.5,77.6,29.96,WSW,240,1.1,1.1,94,0.00,CLR,SKC,0.00,0.0,WeatherDisplay:10.37,2013-08-01 09:57:00,
2013-08-01 05:02:00,79.6,77.7,29.96,NNW,327,1.1,1.1,94,0.00,CLR,SKC,0.00,0.0,WeatherDisplay:10.37,2013-08-01 10:02:00,
2013-08-01 05:07:00,79.5,77.6,29.96,NE,40,3.5,3.5,94,0.00,CLR,SKC,0.00,0.0,WeatherDisplay:10.37,2013-08-01 10:07:00,
2013-08-01 05:13:00,79.5,77.6,29.96,SSW,194,3.5,3.5,94,0.00,CLR,SKC,0.00,0.0,WeatherDisplay:10.37,2013-08-01 10:13:00,
2013-08-01 05:18:00,79.4,77.5,29.96,South,182,3.5,3.5,94,0.00,CLR,SKC,0.00,0.0,WeatherDisplay:10.37,2013-08-01 10:18:00,
2013-08-01 05:23:00,79.4,77.5,29.96,SW,215,2.3,2.3,94,0.00,CLR,SKC,0.00,0.0,WeatherDisplay:10.37,2013-08-01 10:23:00,
2013-08-01 05:28:00,79.3,77.4,29.96,SW,217,1.1,1.1,94,0.00,CLR,SKC,0.00,0.0,WeatherDisplay:10.37,2013-08-01 10:28:00,
2013-08-01 05:34:00,79.3,77.4,29.96,WSW,240,2.3,2.3,94,0.00,CLR,SKC,0.00,0.0,WeatherDisplay:10.37,2013-08-01 10:34:00,
2013-08-01 05:39:00,79.2,77.3,29.96,SSW,197,3.5,3.5,94,0.00,CLR,SKC,0.00,0.0,WeatherDisplay:10.37,2013-08-01 10:39:00,
2013-08-01 05:45:00,79.2,77.3,29.96,East,87,3.5,3.5,94,0.00,CLR,SKC,0.00,0.0,WeatherDisplay:10.37,2013-08-01 10:45:00,
2013-08-01 05:51:00,79.1,77.2,29.96,South,184,1.0,5.0,94,0.00,CLR,SKC,0.00,0.0,WeatherDisplay:10.37,2013-08-01 10:51:00,
2013-08-01 05:56:00,79.1,77.2,29.96,SSW,203,2.3,2.3,94,0.00,CLR,SKC,0.00,0.0,WeatherDisplay:10.37,2013-08-01 10:56:00,
2013-08-01 06:02:00,79.0,77.1,29.96,WSW,250,2.3,2.3,94,0.00,CLR,SKC,0.00,0.0,WeatherDisplay:10.37,2013-08-01 11:02:00,
2013-08-01 06:07:00,78.9,77.0,29.96,South,188,0.0,0.0,94,0.00,CLR,SKC,0.00,0.0,WeatherDisplay:10.37,2013-08-01 11:07:00,
2013-08-01 06:12:00,78.8,76.9,29.96,SSE,158,0.0,0.0,94,0.00,CLR,SKC,0.00,0.0,WeatherDisplay:10.37,2013-08-01 11:12:00,
2013-08-01 06:17:00,78.9,77.0,29.96,South,177,1.1,1.1,94,0.00,CLR,SKC,0.00,0.0,WeatherDisplay:10.37,2013-08-01 11:17:00,
2013-08-01 06:23:00,78.8,76.9,29.96,South,176,1.1,1.1,94,0.00,CLR,SKC,0.00,0.0,WeatherDisplay:10.37,2013-08-01 11:23:00,
2013-08-01 06:28:00,78.8,76.9,29.97,South,177,0.0,0.0,94,0.00,CLR,SKC,0.00,0.0,WeatherDisplay:10.37,2013-08-01 11:28:00,
2013-08-01 06:33:00,78.8,76.9,29.97,South,177,1.1,1.1,94,0.00,CLR,SKC,0.00,0.0,WeatherDisplay:10.37,2013-08-01 11:33:00,
2013-08-01 06:40:00,78.8,76.9,29.98,South,177,0.0,0.0,94,0.00,CLR,SKC,0.00,0.0,WeatherDisplay:10.37,2013-08-01 11:40:00,
2013-08-01 06:45:00,78.8,76.9,29.98,South,177,0.0,0.0,94,0.00,CLR,SKC,0.00,0.0,WeatherDisplay:10.37,2013-08-01 11:45:00,
2013-08-01 06:50:00,78.7,76.8,29.98,South,177,0.0,0.0,94,0.00,CLR,SKC,0.00,0.0,WeatherDisplay:10.37,2013-08-01 11:50:00,
2013-08-01 06:56:00,78.7,76.8,29.98,South,177,0.0,0.0,94,0.00,CLR,SKC,0.00,5.0,WeatherDisplay:10.37,2013-08-01 11:56:00,
2013-08-01 07:01:00,78.7,76.8,29.98,South,177,0.0,0.0,94,0.00,CLR,SKC,0.00,9.0,WeatherDisplay:10.37,2013-08-01 12:01:00,
2013-08-01 07:06:00,78.7,76.8,29.98,South,177,0.0,0.0,94,0.00,CLR,SKC,0.00,12.0,WeatherDisplay:10.37,2013-08-01 12:06:00,
2013-08-01 07:12:00,78.7,76.8,29.98,South,177,1.1,1.1,94,0.00,CLR,SKC,0.00,26.0,WeatherDisplay:10.37,2013-08-01 12:12:00,
2013-08-01 07:17:00,78.8,76.9,29.98,South,177,0.0,0.2,94,0.00,CLR,SKC,0.00,40.0,WeatherDisplay:10.37,2013-08-01 12:17:00,
2013-08-01 07:23:00,78.9,77.3,29.98,South,177,0.0,0.0,95,0.00,CLR,SKC,0.00,65.0,WeatherDisplay:10.37,2013-08-01 12:23:00,
2013-08-01 07:29:00,79.2,77.6,29.98,South,177,0.0,0.0,95,0.00,CLR,SKC,0.00,90.0,WeatherDisplay:10.37,2013-08-01 12:29:00,
2013-08-01 07:35:00,79.4,77.5,29.98,South,180,0.0,0.0,94,0.00,CLR,SKC,0.00,113.0,WeatherDisplay:10.37,2013-08-01 12:35:00,
2013-08-01 07:40:00,79.7,78.1,29.98,South,190,3.5,3.5,95,0.00,CLR,SKC,0.00,114.0,WeatherDisplay:10.37,2013-08-01 12:40:00,
2013-08-01 07:45:00,79.8,77.9,29.98,South,190,0.0,0.0,94,0.00,CLR,SKC,0.00,116.0,WeatherDisplay:10.37,2013-08-01 12:45:00,
2013-08-01 07:50:00,80.0,78.1,29.98,South,190,1.1,0.0,94,0.00,CLR,SKC,0.00,100.0,WeatherDisplay:10.37,2013-08-01 12:50:00,
2013-08-01 07:55:00,80.2,78.0,29.99,South,190,0.0,0.0,93,0.00,CLR,SKC,0.00,81.0,WeatherDisplay:10.37,2013-08-01 12:55:00,
2013-08-01 08:00:00,80.5,78.3,29.99,South,190,0.0,0.0,93,0.00,CLR,SKC,0.00,67.0,WeatherDisplay:10.37,2013-08-01 13:00:00,
2013-08-01 08:06:00,80.8,78.6,29.99,South,190,1.1,1.1,93,0.00,CLR,SKC,0.00,63.0,WeatherDisplay:10.37,2013-08-01 13:06:00,
2013-08-01 08:12:00,81.1,78.6,29.99,South,186,1.1,0.0,92,0.00,CLR,SKC,0.00,67.0,WeatherDisplay:10.37,2013-08-01 13:12:00,
2013-08-01 08:17:00,81.4,78.5,29.99,SE,135,2.3,2.3,91,0.00,CLR,SKC,0.00,84.0,WeatherDisplay:10.37,2013-08-01 13:17:00,
2013-08-01 08:23:00,81.7,78.5,29.99,SSE,166,0.0,0.0,90,0.00,CLR,SKC,0.00,130.0,WeatherDisplay:10.37,2013-08-01 13:23:00,
2013-08-01 08:28:00,82.0,78.8,29.99,ESE,122,1.1,1.1,90,0.00,CLR,SKC,0.00,197.0,WeatherDisplay:10.37,2013-08-01 13:28:00,
2013-08-01 08:33:00,82.3,78.7,29.99,South,188,2.3,2.3,89,0.00,CLR,SKC,0.00,274.0,WeatherDisplay:10.37,2013-08-01 13:33:00,
2013-08-01 08:38:00,82.6,78.7,29.99,South,184,2.3,0.0,88,0.00,CLR,SKC,0.00,315.0,WeatherDisplay:10.37,2013-08-01 13:38:00,
2013-08-01 08:44:00,82.9,78.6,29.98,South,181,2.3,2.3,87,0.00,CLR,SKC,0.00,334.0,WeatherDisplay:10.37,2013-08-01 13:44:00,
2013-08-01 08:49:00,83.0,78.4,29.98,South,174,2.3,2.3,86,0.00,CLR,SKC,0.00,359.0,WeatherDisplay:10.37,2013-08-01 13:49:00,
2013-08-01 08:55:00,83.1,78.1,29.98,SSE,159,3.5,3.5,85,0.00,CLR,SKC,0.00,383.0,WeatherDisplay:10.37,2013-08-01 13:55:00,
2013-08-01 09:01:00,83.2,77.9,29.98,South,175,2.3,2.3,84,0.00,CLR,SKC,0.00,399.0,WeatherDisplay:10.37,2013-08-01 14:01:00,
2013-08-01 09:08:00,83.4,77.7,29.98,South,178,3.5,3.5,83,0.00,CLR,SKC,0.00,461.0,WeatherDisplay:10.37,2013-08-01 14:08:00,
2013-08-01 09:13:00,83.6,77.9,29.98,WSW,246,3.5,3.5,83,0.00,CLR,SKC,0.00,517.0,WeatherDisplay:10.37,2013-08-01 14:13:00,
2013-08-01 09:18:00,83.8,77.7,29.98,South,186,5.8,5.8,82,0.00,CLR,SKC,0.00,487.0,WeatherDisplay:10.37,2013-08-01 14:18:00,
2013-08-01 09:23:00,84.0,77.9,29.98,SSW,201,3.5,3.5,82,0.00,CLR,SKC,0.00,503.0,WeatherDisplay:10.37,2013-08-01 14:23:00,
2013-08-01 09:28:00,84.1,77.6,29.98,West,259,5.8,5.8,81,0.00,CLR,SKC,0.00,450.0,WeatherDisplay:10.37,2013-08-01 14:28:00,
2013-08-01 09:33:00,83.9,77.4,29.98,SW,221,3.5,3.5,81,0.00,CLR,SKC,0.00,566.0,WeatherDisplay:10.37,2013-08-01 14:33:00,
2013-08-01 09:38:00,83.9,77.4,29.98,SW,221,5.8,5.8,81,0.00,CLR,SKC,0.00,229.0,WeatherDisplay:10.37,2013-08-01 14:38:00,
2013-08-01 09:44:00,84.2,77.7,29.98,SSW,210,2.0,2.0,81,0.00,CLR,SKC,0.00,615.0,WeatherDisplay:10.37,2013-08-01 14:44:00,
2013-08-01 09:50:00,84.5,77.6,29.98,SW,234,4.6,4.6,80,0.00,CLR,SKC,0.00,642.0,WeatherDisplay:10.37,2013-08-01 14:50:00,
2013-08-01 09:55:00,85.0,77.8,29.99,NE,34,2.3,2.3,79,0.00,CLR,SKC,0.00,638.0,WeatherDisplay:10.37,2013-08-01 14:55:00,
2013-08-01 10:00:00,85.1,77.8,29.99,SSE,156,2.3,2.3,79,0.00,CLR,SKC,0.00,610.0,WeatherDisplay:10.37,2013-08-01 15:00:00,
2013-08-01 10:05:00,85.5,78.2,29.99,ESE,120,3.5,3.5,79,0.00,SCT,SKC,0.00,587.0,WeatherDisplay:10.37,2013-08-01 15:05:00,
2013-08-01 10:10:00,85.6,77.6,29.99,SSW,209,6.9,6.9,77,0.00,SCT,SKC,0.00,613.0,WeatherDisplay:10.37,2013-08-01 15:10:00,
2013-08-01 10:15:00,85.9,77.5,29.99,South,171,6.9,6.9,76,0.00,SCT,SKC,0.00,624.0,WeatherDisplay:10.37,2013-08-01 15:15:00,
2013-08-01 10:20:00,85.9,77.1,29.99,SE,127,9.2,9.2,75,0.00,SCT,SKC,0.00,629.0,WeatherDisplay:10.37,2013-08-01 15:20:00,
2013-08-01 10:25:00,85.7,77.3,29.99,SE,125,4.6,4.6,76,0.00,SCT,SKC,0.00,656.0,WeatherDisplay:10.37,2013-08-01 15:25:00,
2013-08-01 10:32:00,85.5,77.1,29.99,SE,140,3.5,3.5,76,0.00,CLR,SKC,0.00,673.0,WeatherDisplay:10.37,2013-08-01 15:32:00,
2013-08-01 10:37:00,85.7,76.9,29.99,SSE,153,8.1,8.1,75,0.00,CLR,SKC,0.00,673.0,WeatherDisplay:10.37,2013-08-01 15:37:00,
2013-08-01 10:42:00,86.1,77.2,29.98,SE,130,4.6,4.6,75,0.00,CLR,SKC,0.00,677.0,WeatherDisplay:10.37,2013-08-01 15:42:00,
2013-08-01 10:48:00,86.2,76.9,29.98,SE,128,6.0,6.0,74,0.00,CLR,SKC,0.00,691.0,WeatherDisplay:10.37,2013-08-01 15:48:00,
2013-08-01 10:54:00,86.1,77.2,29.98,SSE,154,6.9,6.9,75,0.00,CLR,SKC,0.00,689.0,WeatherDisplay:10.37,2013-08-01 15:54:00,
2013-08-01 11:00:00,85.6,76.4,29.98,SE,124,7.0,12.0,74,0.00,CLR,SKC,0.00,708.0,WeatherDisplay:10.37,2013-08-01 16:00:00,
2013-08-01 11:04:00,85.0,76.6,29.98,East,88,7.0,7.0,76,0.00,CLR,SKC,0.00,738.0,WeatherDisplay:10.37,2013-08-01 16:04:00,
2013-08-01 11:10:00,85.1,77.1,29.99,South,184,4.6,4.6,77,0.00,CLR,SKC,0.00,758.0,WeatherDisplay:10.37,2013-08-01 16:10:00,
2013-08-01 11:15:00,85.5,76.7,29.99,ESE,111,6.9,6.9,75,0.00,CLR,SKC,0.00,779.0,WeatherDisplay:10.37,2013-08-01 16:15:00,
2013-08-01 11:23:00,84.5,76.5,29.99,SE,138,8.1,8.1,77,0.00,CLR,SKC,0.00,803.0,WeatherDisplay:10.37,2013-08-01 16:23:00,
2013-08-01 11:29:00,84.5,76.5,29.99,ESE,121,10.4,10.4,77,0.00,CLR,SKC,0.00,819.0,WeatherDisplay:10.37,2013-08-01 16:29:00,
2013-08-01 11:34:00,84.5,76.5,29.99,ESE,123,8.1,8.1,77,0.00,CLR,SKC,0.00,826.0,WeatherDisplay:10.37,2013-08-01 16:34:00,
2013-08-01 11:39:00,84.2,76.2,29.99,ESE,107,10.4,10.4,77,0.00,CLR,SKC,0.00,835.0,WeatherDisplay:10.37,2013-08-01 16:39:00,
2013-08-01 11:45:00,84.0,76.4,29.99,ESE,110,10.4,10.4,78,0.00,FEW,SKC,0.00,849.0,WeatherDisplay:10.37,2013-08-01 16:45:00,
2013-08-01 11:51:00,84.5,76.5,29.99,ESE,119,5.0,12.0,77,0.00,CLR,SKC,0.00,854.0,WeatherDisplay:10.37,2013-08-01 16:51:00,
2013-08-01 11:57:00,84.6,76.6,29.99,ESE,120,7.0,7.0,77,0.00,CLR,SKC,0.00,860.0,WeatherDisplay:10.37,2013-08-01 16:57:00,
2013-08-01 12:04:00,85.2,77.2,29.99,ESE,107,9.2,9.2,77,0.00,CLR,SKC,0.00,875.0,WeatherDisplay:10.37,2013-08-01 17:04:00,
2013-08-01 12:11:00,85.4,77.0,29.98,SE,140,6.9,6.9,76,0.00,CLR,SKC,0.00,891.0,WeatherDisplay:10.37,2013-08-01 17:11:00,
2013-08-01 12:17:00,85.4,76.6,29.98,ENE,76,11.5,11.5,75,0.00,CLR,SKC,0.00,893.0,WeatherDisplay:10.37,2013-08-01 17:17:00,
2013-08-01 12:23:00,85.4,77.0,29.98,SSE,147,3.5,3.5,76,0.00,CLR,SKC,0.00,898.0,WeatherDisplay:10.37,2013-08-01 17:23:00,
2013-08-01 12:29:00,86.2,76.9,29.98,ESE,115,10.4,10.4,74,0.00,CLR,SKC,0.00,909.0,WeatherDisplay:10.37,2013-08-01 17:29:00,
2013-08-01 12:34:00,85.1,76.3,29.98,East,89,6.9,6.9,75,0.00,CLR,SKC,0.00,914.0,WeatherDisplay:10.37,2013-08-01 17:34:00,
2013-08-01 12:39:00,84.6,76.2,29.98,ENE,69,11.5,11.5,76,0.00,CLR,SKC,0.00,923.0,WeatherDisplay:10.37,2013-08-01 17:39:00,
2013-08-01 12:45:00,84.3,76.3,29.98,SSE,154,10.4,10.4,77,0.00,CLR,SKC,0.00,926.0,WeatherDisplay:10.37,2013-08-01 17:45:00,
2013-08-01 12:51:00,84.5,76.9,29.98,ESE,117,6.0,12.0,78,0.00,CLR,SKC,0.00,928.0,WeatherDisplay:10.37,2013-08-01 17:51:00,
2013-08-01 12:57:00,84.5,76.5,29.97,ESE,120,9.2,9.2,77,0.00,CLR,SKC,0.00,933.0,WeatherDisplay:10.37,2013-08-01 17:57:00,
2013-08-01 13:02:00,84.8,76.8,29.97,ESE,121,9.2,9.2,77,0.00,CLR,SKC,0.00,937.0,WeatherDisplay:10.37,2013-08-01 18:02:00,
2013-08-01 13:07:00,84.8,76.8,29.97,SSE,159,8.1,8.1,77,0.00,CLR,SKC,0.00,940.0,WeatherDisplay:10.37,2013-08-01 18:07:00,
2013-08-01 13:13:00,84.9,76.9,29.97,ESE,117,11.5,11.5,77,0.00,CLR,SKC,0.00,939.0,WeatherDisplay:10.37,2013-08-01 18:13:00,
2013-08-01 13:18:00,84.7,77.1,29.97,SE,130,10.4,10.4,78,0.00,CLR,SKC,0.00,940.0,WeatherDisplay:10.37,2013-08-01 18:18:00,
2013-08-01 13:23:00,84.6,77.0,29.97,ESE,119,9.2,9.2,78,0.00,CLR,SKC,0.00,939.0,WeatherDisplay:10.37,2013-08-01 18:23:00,
2013-08-01 13:28:00,84.8,76.8,29.97,SE,138,11.5,11.5,77,0.00,CLR,SKC,0.00,939.0,WeatherDisplay:10.37,2013-08-01 18:28:00,
2013-08-01 13:34:00,84.7,77.1,29.97,ESE,121,10.4,10.4,78,0.00,CLR,SKC,0.00,937.0,WeatherDisplay:10.37,2013-08-01 18:34:00,
2013-08-01 13:39:00,84.8,77.2,29.97,ESE,115,11.5,11.5,78,0.00,CLR,SKC,0.00,933.0,WeatherDisplay:10.37,2013-08-01 18:39:00,
2013-08-01 13:45:00,84.7,77.1,29.97,East,98,6.9,6.9,78,0.00,CLR,SKC,0.00,932.0,WeatherDisplay:10.37,2013-08-01 18:45:00,
2013-08-01 13:51:00,84.6,77.0,29.97,ESE,111,11.0,11.0,78,0.00,CLR,SKC,0.00,928.0,WeatherDisplay:10.37,2013-08-01 18:51:00,
2013-08-01 13:57:00,84.7,77.1,29.96,East,95,10.4,10.4,78,0.00,CLR,SKC,0.00,926.0,WeatherDisplay:10.37,2013-08-01 18:57:00,
2013-08-01 14:03:00,84.6,77.0,29.96,ESE,111,10.4,10.4,78,0.00,CLR,SKC,0.00,925.0,WeatherDisplay:10.37,2013-08-01 19:03:00,
2013-08-01 14:08:00,84.4,76.8,29.96,ESE,104,11.5,11.5,78,0.00,CLR,SKC,0.00,921.0,WeatherDisplay:10.37,2013-08-01 19:08:00,
2013-08-01 14:13:00,84.7,76.7,29.96,SE,139,12.7,12.7,77,0.00,CLR,SKC,0.00,919.0,WeatherDisplay:10.37,2013-08-01 19:13:00,
2013-08-01 14:18:00,84.6,77.0,29.96,ESE,103,9.2,9.2,78,0.00,CLR,SKC,0.00,912.0,WeatherDisplay:10.37,2013-08-01 19:18:00,
2013-08-01 14:24:00,84.4,76.8,29.96,East,86,12.7,12.7,78,0.00,CLR,SKC,0.00,909.0,WeatherDisplay:10.37,2013-08-01 19:24:00,
2013-08-01 14:29:00,84.4,76.8,29.96,ESE,109,10.4,10.4,78,0.00,CLR,SKC,0.00,907.0,WeatherDisplay:10.37,2013-08-01 19:29:00,
2013-08-01 14:34:00,84.5,76.5,29.96,ESE,105,11.5,11.5,77,0.00,CLR,SKC,0.00,900.0,WeatherDisplay:10.37,2013-08-01 19:34:00,
2013-08-01 14:40:00,84.4,76.4,29.95,ESE,103,12.7,12.7,77,0.00,CLR,SKC,0.00,895.0,WeatherDisplay:10.37,2013-08-01 19:40:00,
2013-08-01 14:46:00,84.2,76.6,29.95,East,91,11.5,11.5,78,0.00,CLR,SKC,0.00,886.0,WeatherDisplay:10.37,2013-08-01 19:46:00,
2013-08-01 14:51:00,84.5,76.9,29.95,ESE,111,12.7,12.7,78,0.00,CLR,SKC,0.00,881.0,WeatherDisplay:10.37,2013-08-01 19:51:00,
2013-08-01 14:57:00,84.7,77.1,29.95,ESE,108,11.5,11.5,78,0.00,CLR,SKC,0.00,872.0,WeatherDisplay:10.37,2013-08-01 19:57:00,
2013-08-01 15:02:00,84.4,77.2,29.95,SE,128,11.5,11.5,79,0.00,CLR,SKC,0.00,867.0,WeatherDisplay:10.37,2013-08-01 20:02:00,
2013-08-01 15:07:00,84.2,77.0,29.95,East,101,13.8,13.8,79,0.00,CLR,SKC,0.00,856.0,WeatherDisplay:10.37,2013-08-01 20:07:00,
2013-08-01 15:13:00,84.1,77.3,29.94,East,87,11.5,11.5,80,0.00,CLR,SKC,0.00,851.0,WeatherDisplay:10.37,2013-08-01 20:13:00,
2013-08-01 15:18:00,84.3,77.8,29.94,ESE,109,11.5,11.5,81,0.00,CLR,SKC,0.00,840.0,WeatherDisplay:10.37,2013-08-01 20:18:00,
2013-08-01 15:23:00,84.3,77.5,29.94,ESE,103,12.7,12.7,80,0.00,CLR,SKC,0.00,830.0,WeatherDisplay:10.37,2013-08-01 20:23:00,
2013-08-01 15:28:00,84.2,77.4,29.94,ESE,115,11.5,11.5,80,0.00,CLR,SKC,0.00,823.0,WeatherDisplay:10.37,2013-08-01 20:28:00,
2013-08-01 15:33:00,84.2,77.4,29.94,ESE,115,11.5,11.5,80,0.00,CLR,SKC,0.00,812.0,WeatherDisplay:10.37,2013-08-01 20:33:00,
2013-08-01 15:38:00,84.1,77.6,29.94,ESE,123,11.5,11.5,81,0.00,CLR,SKC,0.00,798.0,WeatherDisplay:10.37,2013-08-01 20:38:00,
2013-08-01 15:40:00,84.2,78.1,29.93,ESE,120,11.5,11.5,82,0.00,CLR,SKC,0.00,795.0,WeatherDisplay:10.37,2013-08-01 20:40:00,
2013-08-01 15:46:00,84.2,77.4,29.93,SE,130,12.7,12.7,80,0.00,CLR,SKC,0.00,784.0,WeatherDisplay:10.37,2013-08-01 20:46:00,
2013-08-01 15:52:00,84.1,77.6,29.93,ESE,118,10.4,10.4,81,0.00,CLR,SKC,0.00,770.0,WeatherDisplay:10.37,2013-08-01 20:52:00,
2013-08-01 15:57:00,84.0,77.2,29.93,ESE,112,15.0,15.0,80,0.00,CLR,SKC,0.00,761.0,WeatherDisplay:10.37,2013-08-01 20:57:00,
2013-08-01 16:02:00,84.0,77.5,29.93,ENE,76,11.5,11.5,81,0.00,CLR,SKC,0.00,747.0,WeatherDisplay:10.37,2013-08-01 21:02:00,
2013-08-01 16:07:00,84.2,77.7,29.93,SE,140,11.5,11.5,81,0.00,CLR,SKC,0.00,737.0,WeatherDisplay:10.37,2013-08-01 21:07:00,
2013-08-01 16:12:00,84.4,77.9,29.93,ESE,117,13.0,13.0,81,0.00,CLR,SKC,0.00,721.0,WeatherDisplay:10.37,2013-08-01 21:12:00,
2013-08-01 16:17:00,84.5,77.6,29.93,ENE,78,10.4,10.4,80,0.00,CLR,SKC,0.00,708.0,WeatherDisplay:10.37,2013-08-01 21:17:00,
2013-08-01 16:23:00,84.5,77.6,29.93,ESE,107,17.3,17.3,80,0.00,CLR,SKC,0.00,696.0,WeatherDisplay:10.37,2013-08-01 21:23:00,
2013-08-01 16:28:00,84.5,77.6,29.92,ESE,107,11.5,11.5,80,0.00,CLR,SKC,0.00,680.0,WeatherDisplay:10.37,2013-08-01 21:28:00,
2013-08-01 16:34:00,84.4,77.6,29.92,ENE,72,11.5,11.5,80,0.00,CLR,SKC,0.00,663.0,WeatherDisplay:10.37,2013-08-01 21:34:00,
2013-08-01 16:39:00,84.5,78.0,29.92,ESE,121,12.7,12.7,81,0.00,CLR,SKC,0.00,647.0,WeatherDisplay:10.37,2013-08-01 21:39:00,
2013-08-01 16:44:00,84.6,78.1,29.92,ESE,115,11.5,11.5,81,0.00,CLR,SKC,0.00,629.0,WeatherDisplay:10.37,2013-08-01 21:44:00,
2013-08-01 16:50:00,84.6,78.1,29.92,East,92,13.8,13.8,81,0.00,CLR,SKC,0.00,619.0,WeatherDisplay:10.37,2013-08-01 21:50:00,
2013-08-01 16:55:00,84.6,77.7,29.91,ESE,106,13.8,13.8,80,0.00,CLR,SKC,0.00,601.0,WeatherDisplay:10.37,2013-08-01 21:55:00,
2013-08-01 17:00:00,84.4,77.6,29.91,ESE,106,13.8,13.8,80,0.00,CLR,SKC,0.00,589.0,WeatherDisplay:10.37,2013-08-01 22:00:00,
2013-08-01 17:06:00,84.4,77.6,29.91,SE,126,15.0,15.0,80,0.00,CLR,SKC,0.00,568.0,WeatherDisplay:10.37,2013-08-01 22:06:00,
2013-08-01 17:11:00,84.5,77.6,29.91,ESE,115,16.1,16.1,80,0.00,CLR,SKC,0.00,543.0,WeatherDisplay:10.37,2013-08-01 22:11:00,
2013-08-01 17:17:00,84.8,77.9,29.91,SE,130,12.7,12.7,80,0.00,CLR,SKC,0.00,531.0,WeatherDisplay:10.37,2013-08-01 22:17:00,
2013-08-01 17:22:00,84.8,77.9,29.91,ESE,115,11.5,11.5,80,0.00,CLR,SKC,0.00,519.0,WeatherDisplay:10.37,2013-08-01 22:22:00,
2013-08-01 17:27:00,84.5,77.6,29.91,ESE,123,11.5,11.5,80,0.00,CLR,SKC,0.00,499.0,WeatherDisplay:10.37,2013-08-01 22:27:00,
2013-08-01 17:32:00,84.4,77.2,29.91,ESE,109,12.7,12.7,79,0.00,CLR,SKC,0.00,482.0,WeatherDisplay:10.37,2013-08-01 22:32:00,
2013-08-01 17:37:00,84.3,77.5,29.91,ESE,112,12.7,12.7,80,0.00,CLR,SKC,0.00,466.0,WeatherDisplay:10.37,2013-08-01 22:37:00,
2013-08-01 17:42:00,84.5,78.0,29.91,ESE,112,10.0,10.0,81,0.00,CLR,SKC,0.00,454.0,WeatherDisplay:10.37,2013-08-01 22:42:00,
2013-08-01 17:48:00,84.5,77.6,29.91,SE,134,11.5,11.5,80,0.00,CLR,SKC,0.00,438.0,WeatherDisplay:10.37,2013-08-01 22:48:00,
2013-08-01 17:53:00,84.5,77.6,29.91,ESE,102,12.7,12.7,80,0.00,CLR,SKC,0.00,422.0,WeatherDisplay:10.37,2013-08-01 22:53:00,
2013-08-01 17:58:00,84.4,77.6,29.90,SE,131,13.8,13.8,80,0.00,CLR,SKC,0.00,406.0,WeatherDisplay:10.37,2013-08-01 22:58:00,
2013-08-01 18:04:00,84.2,77.7,29.90,ESE,117,10.4,10.4,81,0.00,CLR,SKC,0.00,371.0,WeatherDisplay:10.37,2013-08-01 23:04:00,
2013-08-01 18:09:00,84.2,77.7,29.90,ENE,77,11.5,11.5,81,0.00,CLR,SKC,0.00,352.0,WeatherDisplay:10.37,2013-08-01 23:09:00,
2013-08-01 18:14:00,84.2,78.1,29.90,ESE,113,6.9,6.9,82,0.00,CLR,SKC,0.00,348.0,WeatherDisplay:10.37,2013-08-01 23:14:00,
2013-08-01 18:19:00,84.5,78.0,29.90,ESE,119,11.5,11.5,81,0.00,CLR,SKC,0.00,334.0,WeatherDisplay:10.37,2013-08-01 23:19:00,
2013-08-01 18:25:00,84.4,77.9,29.90,SE,128,13.8,13.8,81,0.00,CLR,SKC,0.00,318.0,WeatherDisplay:10.37,2013-08-01 23:25:00,
2013-08-01 18:30:00,84.4,77.9,29.90,SE,142,11.5,11.5,81,0.00,CLR,SKC,0.00,302.0,WeatherDisplay:10.37,2013-08-01 23:30:00,
2013-08-01 18:35:00,84.2,77.7,29.90,SE,140,10.4,10.4,81,0.00,CLR,SKC,0.00,287.0,WeatherDisplay:10.37,2013-08-01 23:35:00,
2013-08-01 18:41:00,84.3,78.2,29.90,ESE,106,6.9,6.9,82,0.00,CLR,SKC,0.00,260.0,WeatherDisplay:10.37,2013-08-01 23:41:00,
2013-08-01 18:46:00,84.3,78.2,29.90,SE,126,11.5,11.5,82,0.00,CLR,SKC,0.00,239.0,WeatherDisplay:10.37,2013-08-01 23:46:00,
2013-08-01 18:51:00,84.1,78.0,29.90,ENE,72,10.4,10.4,82,0.00,CLR,SKC,0.00,214.0,WeatherDisplay:10.37,2013-08-01 23:51:00,
2013-08-01 18:57:00,84.0,77.9,29.90,ESE,116,11.5,11.5,82,0.00,CLR,SKC,0.00,163.0,WeatherDisplay:10.37,2013-08-01 23:57:00,
2013-08-01 19:02:00,83.9,78.2,29.90,SE,133,10.4,10.4,83,0.00,CLR,SKC,0.00,151.0,WeatherDisplay:10.37,2013-08-02 00:02:00,
2013-08-01 19:08:00,83.7,78.0,29.90,SE,127,10.4,10.4,83,0.00,CLR,SKC,0.00,142.0,WeatherDisplay:10.37,2013-08-02 00:08:00,
2013-08-01 19:13:00,83.5,77.8,29.90,ESE,115,11.5,11.5,83,0.00,CLR,SKC,0.00,132.0,WeatherDisplay:10.37,2013-08-02 00:13:00,
2013-08-01 19:18:00,83.4,78.1,29.90,East,94,11.5,11.5,84,0.00,CLR,SKC,0.00,128.0,WeatherDisplay:10.37,2013-08-02 00:18:00,
2013-08-01 19:23:00,83.3,78.0,29.90,SE,131,11.0,11.0,84,0.00,CLR,SKC,0.00,120.0,WeatherDisplay:10.37,2013-08-02 00:23:00,
2013-08-01 19:28:00,83.3,78.0,29.90,ESE,107,10.4,10.4,84,0.00,CLR,SKC,0.00,104.0,WeatherDisplay:10.37,2013-08-02 00:28:00,
2013-08-01 19:34:00,83.3,78.0,29.90,SE,124,10.4,10.4,84,0.00,CLR,SKC,0.00,88.0,WeatherDisplay:10.37,2013-08-02 00:34:00,
2013-08-01 19:39:00,83.1,77.8,29.90,SE,131,12.7,12.7,84,0.00,CLR,SKC,0.00,74.0,WeatherDisplay:10.37,2013-08-02 00:39:00,
2013-08-01 19:44:00,83.0,78.0,29.90,SE,128,10.4,10.4,85,0.00,CLR,SKC,0.00,58.0,WeatherDisplay:10.37,2013-08-02 00:44:00,
2013-08-01 19:49:00,83.0,78.0,29.90,ESE,113,11.5,11.5,85,0.00,CLR,SKC,0.00,47.0,WeatherDisplay:10.37,2013-08-02 00:49:00,
2013-08-01 19:55:00,82.9,77.9,29.90,ESE,112,10.4,10.4,85,0.00,CLR,SKC,0.00,35.0,WeatherDisplay:10.37,2013-08-02 00:55:00,
2013-08-01 20:00:00,82.7,78.1,29.90,ESE,113,11.5,11.5,86,0.00,CLR,SKC,0.00,25.0,WeatherDisplay:10.37,2013-08-02 01:00:00,
2013-08-01 20:05:00,82.6,78.0,29.90,ESE,107,9.2,9.2,86,0.00,CLR,SKC,0.00,19.0,WeatherDisplay:10.37,2013-08-02 01:05:00,
2013-08-01 20:10:00,82.4,77.8,29.90,SE,143,8.1,8.1,86,0.00,CLR,SKC,0.00,12.0,WeatherDisplay:10.37,2013-08-02 01:10:00,
2013-08-01 20:15:00,82.3,77.7,29.90,ESE,122,10.4,10.4,86,0.00,CLR,SKC,0.00,7.0,WeatherDisplay:10.37,2013-08-02 01:15:00,
2013-08-01 20:21:00,82.2,77.9,29.90,SE,129,10.4,10.4,87,0.00,CLR,SKC,0.00,0.0,WeatherDisplay:10.37,2013-08-02 01:21:00,
2013-08-01 20:26:00,82.2,77.9,29.90,ESE,115,11.0,11.0,87,0.00,CLR,SKC,0.00,0.0,WeatherDisplay:10.37,2013-08-02 01:26:00,
2013-08-01 20:31:00,82.1,77.8,29.90,East,98,11.5,11.5,87,0.00,CLR,SKC,0.00,0.0,WeatherDisplay:10.37,2013-08-02 01:31:00,
2013-08-01 20:37:00,82.1,77.8,29.90,ESE,114,11.5,11.5,87,0.00,CLR,SKC,0.00,0.0,WeatherDisplay:10.37,2013-08-02 01:37:00,
2013-08-01 20:42:00,82.0,77.7,29.91,ESE,104,11.5,11.5,87,0.00,CLR,SKC,0.00,0.0,WeatherDisplay:10.37,2013-08-02 01:42:00,
2013-08-01 20:47:00,82.0,77.7,29.91,ESE,109,10.4,10.4,87,0.00,CLR,SKC,0.00,0.0,WeatherDisplay:10.37,2013-08-02 01:47:00,
2013-08-01 20:52:00,82.0,77.7,29.91,SE,131,10.4,10.4,87,0.00,CLR,SKC,0.00,0.0,WeatherDisplay:10.37,2013-08-02 01:52:00,
2013-08-01 20:58:00,82.0,77.7,29.91,ESE,116,10.4,10.4,87,0.00,CLR,SKC,0.00,0.0,WeatherDisplay:10.37,2013-08-02 01:58:00,
2013-08-01 21:03:00,81.9,77.6,29.91,East,93,6.9,6.9,87,0.00,CLR,SKC,0.00,0.0,WeatherDisplay:10.37,2013-08-02 02:03:00,
2013-08-01 21:08:00,81.9,78.0,29.91,ESE,107,7.0,7.0,88,0.00,CLR,SKC,0.00,0.0,WeatherDisplay:10.37,2013-08-02 02:08:00,
2013-08-01 21:13:00,81.9,78.0,29.91,ESE,105,6.9,6.9,88,0.00,CLR,SKC,0.00,0.0,WeatherDisplay:10.37,2013-08-02 02:13:00,
2013-08-01 21:19:00,81.8,77.9,29.91,ESE,107,9.2,9.2,88,0.00,CLR,SKC,0.00,0.0,WeatherDisplay:10.37,2013-08-02 02:19:00,
2013-08-01 21:24:00,81.8,77.9,29.91,SE,134,7.0,7.0,88,0.00,CLR,SKC,0.00,0.0,WeatherDisplay:10.37,2013-08-02 02:24:00,
2013-08-01 21:29:00,81.7,77.8,29.91,ESE,123,10.4,10.4,88,0.00,CLR,SKC,0.00,0.0,WeatherDisplay:10.37,2013-08-02 02:29:00,
2013-08-01 21:34:00,81.7,77.8,29.91,SE,128,9.2,9.2,88,0.00,CLR,SKC,0.00,0.0,WeatherDisplay:10.37,2013-08-02 02:34:00,
2013-08-01 21:40:00,81.7,77.8,29.91,SE,126,7.0,7.0,88,0.00,CLR,SKC,0.00,0.0,WeatherDisplay:10.37,2013-08-02 02:40:00,
2013-08-01 21:45:00,81.7,77.8,29.91,SE,142,6.9,6.9,88,0.00,CLR,SKC,0.00,0.0,WeatherDisplay:10.37,2013-08-02 02:45:00,
2013-08-01 21:50:00,81.6,77.7,29.91,ESE,120,4.6,4.6,88,0.00,CLR,SKC,0.00,0.0,WeatherDisplay:10.37,2013-08-02 02:50:00,
2013-08-01 21:55:00,81.6,77.7,29.91,SE,132,5.8,5.8,88,0.00,CLR,SKC,0.00,0.0,WeatherDisplay:10.37,2013-08-02 02:55:00,
2013-08-01 22:01:00,81.5,77.6,29.91,SE,131,5.0,5.0,88,0.00,CLR,SKC,0.00,0.0,WeatherDisplay:10.37,2013-08-02 03:01:00,
2013-08-01 22:07:00,81.5,77.9,29.91,ESE,115,6.0,6.0,89,0.00,CLR,SKC,0.00,0.0,WeatherDisplay:10.37,2013-08-02 03:07:00,
2013-08-01 22:12:00,81.5,77.9,29.91,SSE,148,3.5,3.5,89,0.00,CLR,SKC,0.00,0.0,WeatherDisplay:10.37,2013-08-02 03:12:00,
2013-08-01 22:17:00,81.4,77.8,29.91,SE,140,5.8,5.8,89,0.00,CLR,SKC,0.00,0.0,WeatherDisplay:10.37,2013-08-02 03:17:00,
2013-08-01 22:22:00,81.4,77.8,29.91,SE,131,4.6,4.6,89,0.00,CLR,SKC,0.00,0.0,WeatherDisplay:10.37,2013-08-02 03:22:00,
2013-08-01 22:27:00,81.4,77.8,29.92,SE,136,4.6,4.6,89,0.00,CLR,SKC,0.00,0.0,WeatherDisplay:10.37,2013-08-02 03:27:00,
2013-08-01 22:32:00,81.4,77.8,29.92,SSE,155,3.5,3.5,89,0.00,CLR,SKC,0.00,0.0,WeatherDisplay:10.37,2013-08-02 03:32:00,
2013-08-01 22:37:00,81.4,77.8,29.92,SE,128,3.5,3.5,89,0.00,CLR,SKC,0.00,0.0,WeatherDisplay:10.37,2013-08-02 03:37:00,
2013-08-01 22:43:00,81.4,77.8,29.93,SE,131,3.5,3.5,89,0.00,CLR,SKC,0.00,0.0,WeatherDisplay:10.37,2013-08-02 03:43:00,
2013-08-01 22:49:00,81.4,77.8,29.93,ESE,116,3.5,3.5,89,0.00,CLR,SKC,0.00,0.0,WeatherDisplay:10.37,2013-08-02 03:49:00,
2013-08-01 22:54:00,81.3,77.7,29.93,SE,135,5.8,5.8,89,0.00,CLR,SKC,0.00,0.0,WeatherDisplay:10.37,2013-08-02 03:54:00,
2013-08-01 22:59:00,81.3,77.7,29.93,SE,146,3.5,3.5,89,0.00,CLR,SKC,0.00,0.0,WeatherDisplay:10.37,2013-08-02 03:59:00,
2013-08-01 23:01:00,81.3,77.7,29.93,ESE,113,7.0,7.0,89,0.00,CLR,SKC,0.00,0.0,WeatherDisplay:10.37,2013-08-02 04:01:00,
2013-08-01 23:02:00,81.3,77.7,29.93,SSE,151,6.9,6.9,89,0.00,CLR,SKC,0.00,0.0,WeatherDisplay:10.37,2013-08-02 04:02:00,
2013-08-01 23:07:00,81.2,77.6,29.93,SE,131,4.6,4.6,89,0.00,CLR,SKC,0.00,0.0,WeatherDisplay:10.37,2013-08-02 04:07:00,
2013-08-01 23:12:00,81.2,78.0,29.93,SSE,148,3.5,3.5,90,0.00,CLR,SKC,0.00,0.0,WeatherDisplay:10.37,2013-08-02 04:12:00,
2013-08-01 23:15:00,81.2,78.0,29.93,SSE,159,4.6,4.6,90,0.00,CLR,SKC,0.00,0.0,WeatherDisplay:10.37,2013-08-02 04:15:00,
2013-08-01 23:16:00,81.2,78.0,29.93,SSE,150,4.6,4.6,90,0.00,CLR,SKC,0.00,0.0,WeatherDisplay:10.37,2013-08-02 04:16:00,
2013-08-01 23:21:00,81.1,77.9,29.93,SE,136,6.9,6.9,90,0.00,CLR,SKC,0.00,0.0,WeatherDisplay:10.37,2013-08-02 04:21:00,
2013-08-01 23:26:00,81.1,77.9,29.93,ESE,121,3.5,3.5,90,0.00,CLR,SKC,0.00,0.0,WeatherDisplay:10.37,2013-08-02 04:26:00,
2013-08-01 23:31:00,81.1,77.9,29.93,SSE,149,3.5,3.5,90,0.00,CLR,SKC,0.00,0.0,WeatherDisplay:10.37,2013-08-02 04:31:00,
2013-08-01 23:36:00,81.1,77.9,29.93,SE,128,3.5,3.5,90,0.00,CLR,SKC,0.00,0.0,WeatherDisplay:10.37,2013-08-02 04:36:00,
2013-08-01 23:41:00,81.1,77.9,29.93,SSE,157,5.0,5.0,90,0.00,CLR,SKC,0.00,0.0,WeatherDisplay:10.37,2013-08-02 04:41:00,
2013-08-01 23:46:00,81.0,77.8,29.93,SSE,150,4.0,4.0,90,0.00,CLR,SKC,0.00,0.0,WeatherDisplay:10.37,2013-08-02 04:46:00,
2013-08-01 23:51:00,81.0,77.8,29.93,ESE,115,4.6,4.6,90,0.00,CLR,SKC,0.00,0.0,WeatherDisplay:10.37,2013-08-02 04:51:00,
2013-08-01 23:56:00,81.0,77.8,29.93,SE,139,5.8,5.8,90,0.00,CLR,SKC,0.00,0.0,WeatherDisplay:10.37,2013-08-02 04:56:00,